This is the latest recevied weather packets stored in our database for station/object AI9F. If no packets are shown the sender has not sent any weather packets the latest 10 day(s).
| Time | Temp. | Humidity | Pressure | Rain* | Wind** | Luminosity | Snow |
|---|---|---|---|---|---|---|---|
| 1777949716 | 20.56° C | 50% | 1005.3 hPa | 0 mm | - | 0 W/m² | - |
| 1777949416 | 20.56° C | 50% | 1005.2 hPa | 0 mm | - | 0 W/m² | - |
| 1777949112 | 21.11° C | 50% | 1004.9 hPa | 0 mm | - | 0 W/m² | - |
| 1777948809 | 21.11° C | 50% | 1005.2 hPa | 0 mm | - | 0 W/m² | - |
| 1777948506 | 20.56° C | 52% | 1005.3 hPa | 0 mm | - | 0 W/m² | - |
| 1777948203 | 21.11° C | 52% | 1005 hPa | 0 mm | - | 0 W/m² | - |
| 1777947901 | 21.11° C | 51% | 1005.2 hPa | 0 mm | - | 0 W/m² | - |
| 1777947598 | 21.11° C | 49% | 1005.2 hPa | 0 mm | - | 0 W/m² | - |
| 1777947294 | 21.11° C | 50% | 1005.3 hPa | 0 mm | - | 0 W/m² | - |
| 1777946990 | 21.11° C | 49% | 1005.2 hPa | 0 mm | - | 0 W/m² | - |
| 1777946685 | 21.11° C | 50% | 1005.1 hPa | 0 mm | - | 0 W/m² | - |
| 1777946383 | 21.11° C | 50% | 1005.2 hPa | 0 mm | - | 0 W/m² | - |
| 1777946080 | 21.11° C | 50% | 1005.1 hPa | 0 mm | - | 0 W/m² | - |
| 1777945777 | 21.67° C | 50% | 1005.2 hPa | 0 mm | - | 0 W/m² | - |
| 1777945474 | 21.67° C | 47% | 1005.2 hPa | 0 mm | - | 0 W/m² | - |
| 1777945171 | 21.67° C | 48% | 1005 hPa | 0 mm | - | 0 W/m² | - |
| 1777944868 | 21.67° C | 47% | 1005 hPa | 0 mm | - | 0 W/m² | - |
| 1777944566 | 21.67° C | 46% | 1005.4 hPa | 0 mm | - | 0 W/m² | - |
| 1777944264 | 22.22° C | 46% | 1005 hPa | 0 mm | - | 0 W/m² | - |
| 1777943960 | 22.22° C | 45% | 1005.1 hPa | 0 mm | - | 0 W/m² | - |
| 1777943656 | 22.22° C | 45% | 1005.2 hPa | 0 mm | - | 0 W/m² | - |
| 1777943353 | 22.22° C | 46% | 1005 hPa | 0 mm | - | 0 W/m² | - |
| 1777943049 | 22.22° C | 45% | 1005 hPa | 0 mm | - | 0 W/m² | - |
| 1777942744 | 22.22° C | 45% | 1005.1 hPa | 0 mm | - | 0 W/m² | - |
| 1777942442 | 22.22° C | 44% | 1004.7 hPa | 0 mm | - | 0 W/m² | - |
* Rain latest hour (hover to see other rain measurements)
** Current wind speed in m/s (hover to see current wind gust speed)